Flag for Switzerland Weather past 2 weeks in Montreux, Vaud, Switzerland

Now
58 °F

Cool.


Feels Like: 59 °F
Forecast: 50 / 67 °F
Wind: 3 mph from Southeast

Location: Aigle

Current Time: Aug 29, 2014 at 3:25:09 AM

Latest Report: Aug 29, 2014 at 2:00 AM


Visibility: N/A

Pressure: 30.08 "Hg

Humidity: 93%

Dew point: 56 °F

Location of MontreuxLocation

Historic Weather in Montreux — Graph

°F

Montreux temperature yesterday

Maximum temperature yesterday: 74 °F (at 6:00 PM)
Minimum temperature yesterday: 58 °F (at 8:00 AM)
Average temperature yesterday: 65 °F

Past Weeks' High & Low Weather Summary

 TemperatureHumidityPressure
High74 °F (Aug 18, 5:00 PM)98% (Aug 21, 7:00 AM)30.21 "Hg (Aug 21, 7:00 AM)
Low47 °F (Aug 17, 7:00 AM)38% (Aug 21, 4:00 PM)29.81 "Hg (Aug 18, 6:00 PM)
Average60 °F77%30.01 "Hg
* Reported Aug 14 2:00 AM — Aug 29 2:00 AM, Montreux, Weather by CustomWeather, © 2014

Note: Actual official high and low records may vary slightly from our data, if they occured in-between our weather recording intervals... More about our weather records

Advertising

Montreux weather history for previous 24 hours

 ConditionsComfort  
Time TempWeatherWind HumidityBarometerVisibility
2:00 AM
Aug 29
58 °FCool.3 mph93%30.08 "HgN/A
1:00 AM58 °FCool.1 mph95%30.08 "HgN/A
12:00 AM61 °FCool.5 mph91%30.07 "HgN/A
11:00 PM
Aug 28
62 °FCool.3 mph90%30.07 "HgN/A
10:00 PM64 °FMild.2 mph93%30.06 "HgN/A
9:00 PM68 °FMild.6 mph72%30.03 "HgN/A
8:00 PM69 °FPartly sunny.2 mph77%30.02 "Hg28 mi
7:00 PM72 °FMild.1 mph55%30.01 "HgN/A
6:00 PM74 °FMild.6 mph53%30.00 "HgN/A
5:00 PM73 °FMild.5 mph51%29.99 "HgN/A
4:00 PM74 °FMild.9 mph54%30.00 "HgN/A
3:00 PM74 °FMild.8 mph53%30.01 "HgN/A
2:00 PM72 °FScattered clouds.10 mph60%30.02 "Hg34 mi
1:00 PM71 °FMild.9 mph68%30.03 "HgN/A
12:00 PM69 °FMild.10 mph69%30.04 "HgN/A
11:00 AM68 °FPassing clouds.5 mph68%30.05 "Hg25 mi
10:00 AM67 °FMild.1 mph69%30.06 "HgN/A
9:00 AM64 °FMild.6 mph77%30.07 "HgN/A
8:00 AM58 °FPassing clouds.1 mph97%30.09 "Hg19 mi
7:00 AM59 °FCool.3 mph93%30.07 "HgN/A
6:00 AM59 °FCool.3 mph95%30.06 "HgN/A
5:00 AM59 °FFog.1 mph96%30.06 "Hg9 mi
4:00 AM59 °FCool.No wind97%30.05 "HgN/A
3:00 AM59 °FCool.1 mph94%30.05 "HgN/A
Weather by CustomWeather, © 2014

See weather overviewHow to use our weather pages